Skip Page Navigation
NASA JPL Caltech
NASA Logo - Jet Propulsion Laboratory + View the NASA Portal
+ Center for Near-Earth Object Studies
JPL Home Earth Solar System Stars & Galaxies Technology
JPL Solar System Dynamics
BODIES ORBITS EPHEMERIDES TOOLS PHYSICAL DATA DISCOVERY FAQ SITE MAP
JPL Small-Body Database Browser
Search: [ help ]  
(2020 UN3)
Classification: Apollo [NEO]          SPK-ID: 54075985
Ephemeris | Orbit Diagram | Orbital Elements | Mission Design | Physical Parameters | Close-Approach Data ]

[ hide orbit diagram ]

For accurate long-term ephemerides, please instead use our Horizons system.This orbit viewer was implemented using two-body methods, and hence should not be used for determining accurate long-term trajectories (over several years or decades) or planetary encounter circumstances.


Orbital Elements at Epoch 2459200.5 (2020-Dec-17.0) TDB
Reference: JPL 20 (heliocentric ecliptic J2000)
 Element Value Uncertainty (1-sigma)   Units 
e .193796876449542 8.81e-05  
a 1.039677530664555 5.4687e-05 au
q .8381912727069918 4.7508e-05 au
i 10.6563359429916 0.0054966 deg
node 41.63479771204777 0.00010757 deg
peri 99.2893077037632 0.0035738 deg
M 323.1841838399108 0.01062 deg
tp 2459240.098464529389
(2021-Jan-25.59846453)
0.0082981 TDB
period 387.2098656890268
1.06
0.030551
8.364e-05
d
yr
n .9297283770375846 7.3355e-05 deg/d
Q 1.241163788622119 6.5285e-05 au
  Orbit Determination Parameters
   # obs. used (total)      198  
   data-arc span      33 days  
   first obs. used      2020-10-20  
   last obs. used      2020-11-22  
   planetary ephem.      DE431  
   SB-pert. ephem.      SB431-N16  
   condition code      6  
   norm. resid. RMS      .37  
   source      ORB  
   producer      Otto Matic  
   solution date      2021-Mar-08 13:55:13  

Additional Information
 Earth MOID = .028567 au 
 Jupiter MOID = 3.77514 au 
 T_jup = 5.867 
[ hide covariance matrix ]
Orbital Elements at Epoch 2459151.5 (2020-Oct-29.0) TDB
Reference: JPL 20 (heliocentric ecliptic J2000)
 Element Value Uncertainty (1-sigma)   Units 
e .1933440234741242 8.8533e-05  
q .8384581009872928 4.771e-05 au
tp 2459240.168604199302
(2021-Jan-25.66860420)
0.0084182 TDB
node 41.67674338604471 4.4546e-05 deg
peri 99.28922646685633 0.0036104 deg
i 10.68921657617292 0.005464 deg
  Orbit Determination Parameters
   # obs. used (total)      198  
   data-arc span      33 days  
   first obs. used      2020-10-20  
   last obs. used      2020-11-22  
   planetary ephem.      DE431  
   SB-pert. ephem.      SB431-N16  
   condition code      6  
   norm. resid. RMS      .37  
   source      ORB  
   producer      Otto Matic  
   solution date      2021-Mar-08 13:55:13  

Additional Information
 Jupiter MOID = 3.77514 au 
 T_jup = 5.867 
Orbit Covariance (6×6)
  e q tp node peri i
e 7.838167254263056E-9 -4.223888842554599E-9 -7.452866148305262E-7 3.917966929641348E-9 -3.195937723139037E-7 4.83744360651172E-7
q -4.223888842554599E-9 2.276237502521346E-9 4.016181827119631E-7 -2.111506339588481E-9 1.722133086731758E-7 -2.606828996186072E-7
tp -7.452866148305262E-7 4.016181827119631E-7 7.086673142134022E-5 -3.725461608139899E-7 3.03909112557262E-5 -4.599647478681213E-5
node 3.917966929641348E-9 -2.111506339588481E-9 -3.725461608139899E-7 1.984337536380205E-9 -1.597628957847268E-7 2.417681850677919E-7
peri -3.195937723139037E-7 1.722133086731758E-7 3.03909112557262E-5 -1.597628957847268E-7 1.303511543501469E-5 -1.972427090071011E-5
i 4.83744360651172E-7 -2.606828996186072E-7 -4.599647478681213E-5 2.417681850677919E-7 -1.972427090071011E-5 2.985521117227791E-5

Ephemeris | Orbit Diagram | Orbital Elements | Mission Design | Physical Parameters | Close-Approach Data ]

Physical Parameter Table
Parameter Symbol Value Units Sigma Reference Notes
absolute magnitude H 24.3   .52044 E2021-CQ9 autocmod 2.8

[ hide close-approach data ]
Close-Approach Data   ...sorted by Date/Time (TDB)
Date/Time (TDB) Time Uncertainty
(days_HH:MM)
Body Nominal Distance (au) Minimum Distance (au) Maximum Distance (au) V-relative (km/s) V-infinity (km/s) JD (TDB) Time Uncertainty (minutes) Semi-major axis (km) Semi-minor axis (km) range-LOV angle (deg) N-sigma BP Orbit Ref. Reference Modified
1912-Oct-22 03:45 4_13:08 Earth 0.495944234130341 0.365469533922817 0.626421491296015 20.9990301749529 20.9987743264268 2419697.656385860 6548.31466403759 6506551.85325307 15.2817581127647 -0.581224183568812 42082.3934110425 T 20 CATAB v2.0f-lin.ifort 2021-Mar-08 13:55:14 2021-Mar-08 13:55
1913-Nov-06 04:18 3_00:55 Earth 0.140236783002148 0.031168456175601 0.257236085269403 10.9629686605413 10.9612354290323 2420077.679140967 4374.93703221495 5880032.65831594 16.2934056348024 -9.73536048529451 166588.569911287 T 20 CATAB v2.0f-lin.ifort 2021-Mar-08 13:55:14 2021-Mar-08 13:55
1916-May-08 15:11 4_16:19 Earth 0.0293430041689517 0.0247724987664909 0.0805222990275835 8.02507317069982 8.01375007244581 2420992.132640910 6739.1881953631 3037311.85656785 37.3928697311807 57.6293926351888 85361.3317148748 T 20 CATAB v2.0f-lin.ifort 2021-Mar-08 13:55:14 2021-Mar-08 13:55
1917-May-29 10:07 2_14:31 Earth 0.377136474454349 0.323923443024039 0.430349074210685 17.3141871343396 17.3137790810997 2421377.921621535 3750.77712522867 2653431.68506988 48.4299622454427 0.045907842819252 635.494476658602 T 20 CATAB v2.0f-lin.ifort 2021-Mar-08 13:55:14 2021-Mar-08 13:55
1930-Oct-23 04:50 3_09:11 Earth 0.494247109066455 0.427304457850242 0.561194602012911 20.9707142991902 20.9704572254848 2426272.701258630 4870.86668386569 3339171.22394154 14.1124226543589 -1.35304349109995 105709.101900939 T 20 CATAB v2.0f-lin.ifort 2021-Mar-08 13:55:14 2021-Mar-08 13:55
1931-Nov-07 09:20 2_23:54 Earth 0.130648313908807 0.056713003966749 0.208406880351829 10.7198404724505 10.7179378230531 2426652.888630029 4314.19348618595 3944124.87457703 11.5438965195578 -13.3788990228968 296513.231455197 T 20 CATAB v2.0f-lin.ifort 2021-Mar-08 13:55:14 2021-Mar-08 13:55
1934-May-11 01:33 6_06:31 Earth 0.0484948914946429 0.0224891331867118 0.130335971050298 8.56742610996034 8.56101063768913 2427568.564352493 9030.8864849732 4259636.81021614 40.0123954387001 27.6669839761258 71755.600632092 T 20 CATAB v2.0f-lin.ifort 2021-Mar-08 13:55:14 2021-Mar-08 13:55
1935-May-31 15:43 4_08:48 Earth 0.409268376092252 0.328303263242474 0.490256159666301 18.2155376102606 18.2151802004777 2427954.155026197 6288.05279445476 4040824.01581448 53.5451273359841 -2.15040150563835 36670.8967444004 T 20 CATAB v2.0f-lin.ifort 2021-Mar-08 13:55:14 2021-Mar-08 13:55
1948-Oct-28 01:43 19:38 Earth 0.380898382517401 0.362252590860676 0.39954687769615 17.6835852930693 17.6831897099374 2432852.571352851 1178.14503842276 931233.560063053 14.0432860080249 -3.13991217687224 183038.261590742 T 20 CATAB v2.0f-lin.ifort 2021-Mar-08 13:55:14 2021-Mar-08 13:55
1949-Nov-10 08:21 03:43 Earth 0.0285868627787523 0.0283495803505116 0.0334192604398297 7.79192565456634 7.77995453408091 2433230.847987457 222.756130958257 699702.132908549 9.14372761362877 -82.633743554012 317225.080508453 T 20 CATAB v2.0f-lin.ifort 2021-Mar-08 13:55:14 2021-Mar-08 13:55
1950-Sep-13 10:30 3_08:07 Earth 0.28171822989097 0.276050521904631 0.287445759361583 5.88005463506659 5.87844593360291 2433537.937413772 4807.28574280678 350203.801100003 50.0582269800305 35.7615863296105 279905.279628839 T 20 CATAB v2.0f-lin.ifort 2021-Mar-08 13:55:14 2021-Mar-08 13:55
1951-Mar-28 01:35 6_08:43 Earth 0.182516229070728 0.177894352409015 0.197383540969339 6.04435244104872 6.04193671387318 2433733.566222591 9163.01275344424 2229839.93832545 57.7470660053241 77.0819796244241 261343.858397488 T 20 CATAB v2.0f-lin.ifort 2021-Mar-08 13:55:14 2021-Mar-08 13:55
1952-May-18 15:31 21:18 Earth 0.170538314178937 0.153839025715232 0.187250387872499 11.6506856728825 11.6493445644222 2434151.146224522 1278.42803720312 836293.036033174 35.6836619072757 5.08621610172583 51381.1311929045 T 20 CATAB v2.0f-lin.ifort 2021-Mar-08 13:55:14 2021-Mar-08 13:55
1966-Oct-31 16:50 1_15:36 Earth 0.306944849032078 0.265967141829303 0.3479583281832 15.5669960550804 15.5664384137297 2439430.201375090 2375.87454128452 2050951.9326013 13.9625228740969 -4.60796976155031 211492.890325593 T 20 CATAB v2.0f-lin.ifort 2021-Mar-08 13:55:14 2021-Mar-08 13:55
1967-Nov-10 09:44 1_10:23 Earth 0.0726022345749345 0.0406423895436642 0.113831797269281 6.52245321416254 6.51682411573862 2439804.905659477 2062.82214861758 2249149.28004375 8.23390827117426 30.3087624239947 334577.264808704 T 20 CATAB v2.0f-lin.ifort 2021-Mar-08 13:55:14 2021-Mar-08 13:55
1968-Aug-27 05:32 9_06:40 Earth 0.301297581795549 0.294401318071401 0.308958365068919 5.6786905310356 5.67713303098234 2440095.730311044 13360.2085958898 839666.736107743 74.4174666365464 64.3412731316467 295605.830349942 T 20 CATAB v2.0f-lin.ifort 2021-Mar-08 13:55:14 2021-Mar-08 13:55
1969-Apr-22 19:26 8_22:21 Earth 0.11948066160638 0.105185914176833 0.171020431968004 6.07753936926987 6.07386892934856 2440334.309710558 12860.5845307646 3899280.16034482 56.2785221457536 61.6911050726826 210208.276295607 T 20 CATAB v2.0f-lin.ifort 2021-Mar-08 13:55:14 2021-Mar-08 13:55
1970-May-23 08:40 2_00:54 Earth 0.249243095443741 0.211466935306049 0.287021812153737 13.760802141004 13.760025254227 2440729.860776966 2934.43180549439 1884228.64487176 44.0262596923356 1.34118180681342 16279.5796358661 T 20 CATAB v2.0f-lin.ifort 2021-Mar-08 13:55:14 2021-Mar-08 13:55
1984-Nov-04 16:42 04:43 Earth 0.19252196155589 0.184598345479907 0.200451136019417 12.3650130473705 12.363893719913 2446009.195960151 282.52107190759 398609.500314938 16.5070621216275 -7.46141196607751 177785.246083497 T 20 CATAB v2.0f-lin.ifort 2021-Mar-08 13:55:14 2021-Mar-08 13:55
1985-Oct-25 18:00 1_06:00 Earth 0.177722235492169 0.173195182031712 0.182335898653266 5.87768625801269 5.87513497607359 2446364.250172451 1799.96910691232 300395.122062904 45.8206355495881 40.6401140607084 247187.786809342 T 20 CATAB v2.0f-lin.ifort 2021-Mar-08 13:55:14 2021-Mar-08 13:55
